VIR655 MBPV-MKJS

Flight info

Callsign VIR655
Flight time 1h 8m
Altitude 40000
Route OVALU UG629 IMADI LENAR7
Aircraft A339/H-SADE1E2E3GHIJ3J5M1P2RWXY/LB2D1

Departure

Time 2026-04-26 22:00
Airport Providenciales International Airport (MBPV)

Arrival

Time 2026-04-26 23:08
Airport Sangster International Airport (MKJS)
Time Latitude Longitude Altitude Speed Heading
2026-04-26 21:34 21.77649 -72.27419 48 ft 0 kts 33°
2026-04-26 21:52 21.77632 -72.27431 44 ft 4 kts 38°
2026-04-26 21:52 21.77611 -72.27449 41 ft 4 kts 25°
2026-04-26 21:52 21.77592 -72.27457 45 ft 3 kts 352°
2026-04-26 21:53 21.77567 -72.27453 41 ft 4 kts 332°
2026-04-26 21:53 21.77545 -72.27438 41 ft 4 kts 307°
2026-04-26 21:53 21.77531 -72.27415 43 ft 4 kts 287°
2026-04-26 21:53 21.77524 -72.27388 42 ft 4 kts 275°
2026-04-26 21:54 21.77523 -72.27375 43 ft 0 kts 273°
2026-04-26 21:56 21.77523 -72.27377 43 ft 2 kts 273°
2026-04-26 21:56 21.77523 -72.27432 43 ft 9 kts 258°
2026-04-26 21:56 21.77467 -72.27463 45 ft 11 kts 187°
2026-04-26 21:57 21.77408 -72.27500 43 ft 9 kts 255°
2026-04-26 21:57 21.77407 -72.27576 44 ft 11 kts 272°
2026-04-26 21:57 21.77410 -72.27668 43 ft 13 kts 272°
2026-04-26 21:57 21.77415 -72.27781 43 ft 18 kts 272°
2026-04-26 21:58 21.77422 -72.27926 43 ft 20 kts 273°
2026-04-26 21:58 21.77430 -72.28081 43 ft 21 kts 275°
2026-04-26 21:58 21.77469 -72.28197 43 ft 10 kts 262°
2026-04-26 21:58 21.77443 -72.28201 43 ft 3 kts 171°
2026-04-26 21:59 21.77437 -72.28179 40 ft 4 kts 109°
2026-04-26 21:59 21.77435 -72.28132 42 ft 10 kts 94°
2026-04-26 21:59 21.77417 -72.27797 44 ft 90 kts 93°
2026-04-26 21:59 21.77370 -72.26812 46 ft 169 kts 94°
2026-04-26 22:00 21.77291 -72.25480 675 ft 185 kts 94°
2026-04-26 22:00 21.77203 -72.24030 1399 ft 200 kts 94°
2026-04-26 22:00 21.77107 -72.22477 2035 ft 220 kts 94°
2026-04-26 22:00 21.77011 -72.20752 2563 ft 241 kts 93°
2026-04-26 22:01 21.76872 -72.18916 3025 ft 257 kts 101°
2026-04-26 22:01 21.76113 -72.17107 3504 ft 270 kts 129°
2026-04-26 22:01 21.74733 -72.15788 4261 ft 271 kts 147°
2026-04-26 22:01 21.73103 -72.14748 5000 ft 273 kts 153°
2026-04-26 22:02 21.71430 -72.13754 5740 ft 276 kts 152°
2026-04-26 22:02 21.70300 -72.13049 6254 ft 278 kts 151°
2026-04-26 22:02 21.68105 -72.11576 7180 ft 283 kts 149°
2026-04-26 22:02 21.66450 -72.10401 7884 ft 286 kts 148°
2026-04-26 22:03 21.64774 -72.09229 8569 ft 288 kts 154°
2026-04-26 22:03 21.62869 -72.08632 9265 ft 285 kts 179°
2026-04-26 22:03 21.60923 -72.08914 9990 ft 283 kts 199°
2026-04-26 22:03 21.59007 -72.09542 10369 ft 297 kts 200°
2026-04-26 22:04 21.57178 -72.10672 10560 ft 314 kts 223°
2026-04-26 22:04 21.55809 -72.12561 10815 ft 328 kts 239°
2026-04-26 22:04 21.54673 -72.14705 11366 ft 331 kts 244°
2026-04-26 22:04 21.53815 -72.17007 11838 ft 334 kts 250°
2026-04-26 22:05 21.53020 -72.19351 12010 ft 335 kts 250°
2026-04-26 22:05 21.52209 -72.21710 12532 ft 337 kts 248°
2026-04-26 22:05 21.51409 -72.24074 13227 ft 338 kts 251°
2026-04-26 22:05 21.50682 -72.26484 13835 ft 340 kts 252°
2026-04-26 22:06 21.50191 -72.28085 14212 ft 342 kts 251°
2026-04-26 22:06 21.49412 -72.30510 14768 ft 344 kts 250°
2026-04-26 22:06 21.48594 -72.32930 15331 ft 346 kts 250°
2026-04-26 22:06 21.47750 -72.35362 15894 ft 349 kts 250°
2026-04-26 22:07 21.46890 -72.37814 16427 ft 351 kts 250°
2026-04-26 22:07 21.46026 -72.40275 16959 ft 354 kts 250°
2026-04-26 22:07 21.45155 -72.42755 17484 ft 356 kts 250°
2026-04-26 22:07 21.44278 -72.45255 18017 ft 359 kts 250°
2026-04-26 22:08 21.43395 -72.47774 18493 ft 362 kts 250°
2026-04-26 22:08 21.42506 -72.50308 18968 ft 364 kts 250°
2026-04-26 22:08 21.41611 -72.52856 19409 ft 367 kts 250°
2026-04-26 22:08 21.40705 -72.55433 19873 ft 369 kts 250°
2026-04-26 22:09 21.39795 -72.58020 20355 ft 372 kts 250°
2026-04-26 22:09 21.38878 -72.60625 20810 ft 375 kts 250°
2026-04-26 22:09 21.37955 -72.63249 21302 ft 377 kts 250°
2026-04-26 22:09 21.37024 -72.65893 21771 ft 380 kts 250°
2026-04-26 22:10 21.36097 -72.68524 22250 ft 383 kts 250°
2026-04-26 22:10 21.35152 -72.71202 22741 ft 386 kts 250°
2026-04-26 22:10 21.34200 -72.73904 23215 ft 389 kts 250°
2026-04-26 22:10 21.33239 -72.76627 23662 ft 392 kts 250°
2026-04-26 22:11 21.32275 -72.79358 24164 ft 391 kts 250°
2026-04-26 22:11 21.31311 -72.82086 24676 ft 391 kts 250°
2026-04-26 22:11 21.30346 -72.84818 25150 ft 392 kts 250°
2026-04-26 22:11 21.29378 -72.87555 25624 ft 393 kts 250°
2026-04-26 22:12 21.28410 -72.90295 26095 ft 393 kts 250°
2026-04-26 22:12 21.27439 -72.93039 26584 ft 394 kts 250°
2026-04-26 22:12 21.26466 -72.95786 27020 ft 395 kts 250°
2026-04-26 22:12 21.25489 -72.98545 27466 ft 396 kts 250°
2026-04-26 22:13 21.24509 -73.01308 27909 ft 397 kts 250°
2026-04-26 22:13 21.23527 -73.04078 28369 ft 398 kts 250°
2026-04-26 22:13 21.22540 -73.06858 28803 ft 399 kts 250°
2026-04-26 22:13 21.21550 -73.09646 29213 ft 401 kts 250°
2026-04-26 22:14 21.20556 -73.12443 29646 ft 402 kts 250°
2026-04-26 22:14 21.19561 -73.15242 30071 ft 403 kts 250°
2026-04-26 22:14 21.18560 -73.18057 30423 ft 405 kts 250°
2026-04-26 22:14 21.17553 -73.20885 30788 ft 407 kts 250°
2026-04-26 22:15 21.16541 -73.23727 31155 ft 409 kts 250°
2026-04-26 22:15 21.15525 -73.26578 31526 ft 411 kts 250°
2026-04-26 22:15 21.14504 -73.29442 31874 ft 413 kts 250°
2026-04-26 22:15 21.13476 -73.32323 32213 ft 415 kts 250°
2026-04-26 22:16 21.12445 -73.35211 32540 ft 416 kts 250°
2026-04-26 22:16 21.11406 -73.38119 32826 ft 418 kts 250°
2026-04-26 22:16 21.10378 -73.40995 33064 ft 419 kts 250°
2026-04-26 22:16 21.09334 -73.43913 33283 ft 421 kts 250°
2026-04-26 22:17 21.08286 -73.46842 33477 ft 422 kts 250°
2026-04-26 22:17 21.07235 -73.49776 33744 ft 421 kts 250°
2026-04-26 22:17 21.06188 -73.52699 34006 ft 420 kts 250°
2026-04-26 22:17 21.05135 -73.55633 34228 ft 419 kts 250°
2026-04-26 22:18 21.04090 -73.58547 34448 ft 419 kts 250°
2026-04-26 22:18 21.03047 -73.61454 34676 ft 418 kts 250°
2026-04-26 22:18 21.02005 -73.64353 34899 ft 417 kts 250°
2026-04-26 22:18 21.00966 -73.67246 35120 ft 416 kts 250°
2026-04-26 22:19 20.99927 -73.70136 35343 ft 416 kts 250°
2026-04-26 22:19 20.98890 -73.73017 35569 ft 415 kts 250°
2026-04-26 22:19 20.97851 -73.75902 35775 ft 414 kts 250°
2026-04-26 22:19 20.96813 -73.78783 35985 ft 414 kts 250°
2026-04-26 22:20 20.95778 -73.81654 36195 ft 413 kts 250°
2026-04-26 22:20 20.94744 -73.84521 36412 ft 412 kts 250°
2026-04-26 22:20 20.93713 -73.87379 36623 ft 412 kts 250°
2026-04-26 22:20 20.92682 -73.90235 36838 ft 411 kts 250°
2026-04-26 22:21 20.91650 -73.93090 37038 ft 411 kts 250°
2026-04-26 22:21 20.90621 -73.95936 37249 ft 410 kts 250°
2026-04-26 22:21 20.89607 -73.98738 37456 ft 410 kts 250°
2026-04-26 22:21 20.88580 -74.01574 37653 ft 409 kts 250°
2026-04-26 22:22 20.87553 -74.04412 37852 ft 408 kts 250°
2026-04-26 22:22 20.86528 -74.07239 38067 ft 408 kts 250°
2026-04-26 22:22 20.85504 -74.10067 38253 ft 407 kts 250°
2026-04-26 22:22 20.84627 -74.12934 38445 ft 406 kts 255°
2026-04-26 22:23 20.83925 -74.15859 38622 ft 406 kts 256°
2026-04-26 22:23 20.83222 -74.18778 38784 ft 405 kts 255°
2026-04-26 22:23 20.82514 -74.21695 38923 ft 405 kts 255°
2026-04-26 22:23 20.81801 -74.24612 39071 ft 405 kts 255°
2026-04-26 22:24 20.81089 -74.27519 39217 ft 405 kts 255°
2026-04-26 22:24 20.80375 -74.30428 39364 ft 405 kts 255°
2026-04-26 22:24 20.79660 -74.33340 39496 ft 405 kts 255°
2026-04-26 22:24 20.78945 -74.36249 39636 ft 405 kts 255°
2026-04-26 22:25 20.78230 -74.39158 39781 ft 404 kts 255°
2026-04-26 22:25 20.77516 -74.42059 39913 ft 404 kts 255°
2026-04-26 22:25 20.76085 -74.47870 39948 ft 403 kts 255°
2026-04-26 22:26 20.74655 -74.53665 39952 ft 404 kts 255°
2026-04-26 22:26 20.73211 -74.59509 39950 ft 409 kts 255°
2026-04-26 22:27 20.71760 -74.65371 39951 ft 412 kts 255°
2026-04-26 22:27 20.70291 -74.71299 39951 ft 414 kts 255°
2026-04-26 22:28 20.68814 -74.77247 39948 ft 415 kts 255°
2026-04-26 22:28 20.67332 -74.83206 39949 ft 415 kts 255°
2026-04-26 22:29 20.65683 -74.89117 39952 ft 416 kts 250°
2026-04-26 22:29 20.63185 -74.94701 39955 ft 418 kts 242°
2026-04-26 22:30 20.59837 -74.99818 39938 ft 423 kts 234°
2026-04-26 22:30 20.56175 -75.04674 39915 ft 423 kts 235°
2026-04-26 22:31 20.52507 -75.09582 39914 ft 423 kts 235°
2026-04-26 22:31 20.48840 -75.14484 39931 ft 422 kts 235°
2026-04-26 22:32 20.45169 -75.19383 39931 ft 423 kts 235°
2026-04-26 22:32 20.41507 -75.24267 39953 ft 422 kts 235°
2026-04-26 22:33 20.35996 -75.31605 39952 ft 423 kts 235°
2026-04-26 22:34 20.32321 -75.36496 39947 ft 424 kts 235°
2026-04-26 22:34 20.28630 -75.41401 39946 ft 424 kts 235°
2026-04-26 22:35 20.24957 -75.46280 39914 ft 425 kts 234°
2026-04-26 22:35 20.21254 -75.51194 39911 ft 425 kts 234°
2026-04-26 22:36 20.17550 -75.56105 39909 ft 425 kts 234°
2026-04-26 22:36 20.13844 -75.61015 39905 ft 425 kts 234°
2026-04-26 22:37 20.10132 -75.65929 39907 ft 426 kts 234°
2026-04-26 22:37 20.06420 -75.70840 39908 ft 426 kts 234°
2026-04-26 22:38 20.02700 -75.75757 39911 ft 427 kts 234°
2026-04-26 22:38 19.98979 -75.80670 39909 ft 427 kts 234°
2026-04-26 22:39 19.95334 -75.85640 39907 ft 426 kts 237°
2026-04-26 22:39 19.91874 -75.90741 39905 ft 426 kts 237°
2026-04-26 22:40 19.88395 -75.95823 39934 ft 424 kts 237°
2026-04-26 22:40 19.84898 -76.00879 39935 ft 425 kts 237°
2026-04-26 22:41 19.81384 -76.05948 39925 ft 426 kts 237°
2026-04-26 22:41 19.77896 -76.10974 39914 ft 425 kts 237°
2026-04-26 22:42 19.74386 -76.16030 39912 ft 426 kts 237°
2026-04-26 22:42 19.70867 -76.21093 39928 ft 426 kts 237°
2026-04-26 22:43 19.67346 -76.26156 39926 ft 426 kts 237°
2026-04-26 22:43 19.63819 -76.31223 39922 ft 427 kts 237°
2026-04-26 22:44 19.60290 -76.36288 39922 ft 427 kts 237°
2026-04-26 22:44 19.56757 -76.41354 39922 ft 427 kts 237°
2026-04-26 22:45 19.53224 -76.46419 39926 ft 427 kts 237°
2026-04-26 22:45 19.49681 -76.51493 39920 ft 428 kts 237°
2026-04-26 22:46 19.46140 -76.56561 39924 ft 428 kts 237°
2026-04-26 22:46 19.42598 -76.61625 39924 ft 428 kts 236°
2026-04-26 22:47 19.39048 -76.66695 39924 ft 428 kts 236°
2026-04-26 22:47 19.35497 -76.71764 39961 ft 427 kts 236°
2026-04-26 22:48 19.32008 -76.76736 39839 ft 417 kts 236°
2026-04-26 22:48 19.30285 -76.79192 39600 ft 415 kts 237°
2026-04-26 22:48 19.28539 -76.81680 39359 ft 416 kts 237°
2026-04-26 22:48 19.26835 -76.84111 38812 ft 418 kts 236°
2026-04-26 22:49 19.25093 -76.86592 37945 ft 421 kts 236°
2026-04-26 22:49 19.23339 -76.89088 37053 ft 422 kts 237°
2026-04-26 22:49 19.21584 -76.91582 36203 ft 423 kts 237°
2026-04-26 22:49 19.19828 -76.94079 35391 ft 424 kts 237°
2026-04-26 22:50 19.18061 -76.96590 34597 ft 426 kts 237°
2026-04-26 22:50 19.16281 -76.99119 33806 ft 431 kts 237°
2026-04-26 22:50 19.14484 -77.01675 32927 ft 435 kts 237°
2026-04-26 22:50 19.12671 -77.04252 32097 ft 439 kts 237°
2026-04-26 22:51 19.10835 -77.06858 31266 ft 442 kts 237°
2026-04-26 22:51 19.08995 -77.09468 30476 ft 443 kts 236°
2026-04-26 22:51 19.07152 -77.12079 29651 ft 442 kts 236°
2026-04-26 22:51 19.05325 -77.14664 29118 ft 433 kts 236°
2026-04-26 22:52 19.03543 -77.17183 28957 ft 426 kts 236°
2026-04-26 22:52 18.99953 -77.22273 28692 ft 434 kts 236°
2026-04-26 22:52 18.98759 -77.23962 28394 ft 432 kts 236°
2026-04-26 22:53 18.96381 -77.27323 27478 ft 430 kts 236°
2026-04-26 22:53 18.94595 -77.29848 26720 ft 428 kts 236°
2026-04-26 22:53 18.92821 -77.32354 25986 ft 424 kts 236°
2026-04-26 22:53 18.91059 -77.34840 25269 ft 421 kts 236°
2026-04-26 22:54 18.89875 -77.36511 24792 ft 419 kts 236°
2026-04-26 22:54 18.87574 -77.39759 23878 ft 415 kts 236°
2026-04-26 22:54 18.86428 -77.41374 23419 ft 413 kts 236°
2026-04-26 22:54 18.84714 -77.43794 22623 ft 410 kts 236°
2026-04-26 22:55 18.83012 -77.46194 21824 ft 406 kts 236°
2026-04-26 22:55 18.81341 -77.48550 21015 ft 395 kts 236°
2026-04-26 22:55 18.79691 -77.50876 20235 ft 397 kts 236°
2026-04-26 22:55 18.78042 -77.53201 19465 ft 395 kts 236°
2026-04-26 22:56 18.76401 -77.55513 18712 ft 392 kts 235°
2026-04-26 22:56 18.74773 -77.57807 17944 ft 389 kts 235°
2026-04-26 22:56 18.73177 -77.60053 17071 ft 386 kts 235°
2026-04-26 22:56 18.71570 -77.62313 16220 ft 384 kts 235°
2026-04-26 22:57 18.69971 -77.64560 15372 ft 382 kts 234°
2026-04-26 22:57 18.68384 -77.66791 14562 ft 379 kts 234°
2026-04-26 22:57 18.66815 -77.68994 13756 ft 373 kts 234°
2026-04-26 22:57 18.65266 -77.71169 12880 ft 368 kts 234°
2026-04-26 22:58 18.63742 -77.73309 11999 ft 362 kts 234°
2026-04-26 22:58 18.62327 -77.75476 11166 ft 355 kts 238°
2026-04-26 22:58 18.61031 -77.77670 10333 ft 350 kts 238°
2026-04-26 22:58 18.59756 -77.79821 9787 ft 338 kts 238°
2026-04-26 22:59 18.58549 -77.81847 9552 ft 315 kts 238°
2026-04-26 22:59 18.57419 -77.83736 9319 ft 295 kts 238°
2026-04-26 22:59 18.56343 -77.85532 8802 ft 287 kts 238°
2026-04-26 22:59 18.55295 -77.87279 8156 ft 284 kts 238°
2026-04-26 23:00 18.54353 -77.89090 7504 ft 280 kts 249°
2026-04-26 23:00 18.53784 -77.91021 7034 ft 274 kts 253°
2026-04-26 23:00 18.53231 -77.92942 6568 ft 274 kts 253°
2026-04-26 23:00 18.52663 -77.94870 6098 ft 270 kts 251°
2026-04-26 23:01 18.52066 -77.96712 5711 ft 270 kts 251°
2026-04-26 23:01 18.51462 -77.98580 5319 ft 268 kts 251°
2026-04-26 23:01 18.50931 -78.00451 4890 ft 266 kts 254°
2026-04-26 23:01 18.50428 -78.02328 4455 ft 266 kts 254°
2026-04-26 23:02 18.49856 -78.04164 4127 ft 258 kts 249°
2026-04-26 23:02 18.49189 -78.05838 4024 ft 238 kts 247°
2026-04-26 23:02 18.48557 -78.07388 4002 ft 230 kts 245°
2026-04-26 23:02 18.47782 -78.08872 3866 ft 229 kts 239°
2026-04-26 23:03 18.46968 -78.10287 3568 ft 224 kts 239°
2026-04-26 23:03 18.45940 -78.11490 3225 ft 221 kts 215°
2026-04-26 23:03 18.44526 -78.11993 3048 ft 213 kts 184°
2026-04-26 23:03 18.43106 -78.11631 3024 ft 217 kts 152°
2026-04-26 23:04 18.42105 -78.10457 3018 ft 222 kts 113°
2026-04-26 23:04 18.42023 -78.08911 2990 ft 207 kts 71°
2026-04-26 23:04 18.42762 -78.07715 3004 ft 193 kts 46°
2026-04-26 23:04 18.43653 -78.06609 2929 ft 199 kts 51°
2026-04-26 23:05 18.44359 -78.05365 2659 ft 197 kts 62°
2026-04-26 23:05 18.44919 -78.04060 2395 ft 194 kts 65°
2026-04-26 23:05 18.45450 -78.02761 2132 ft 190 kts 65°
2026-04-26 23:05 18.45969 -78.01520 1878 ft 180 kts 65°
2026-04-26 23:06 18.46470 -78.00353 1663 ft 169 kts 64°
2026-04-26 23:06 18.46932 -77.99279 1439 ft 154 kts 64°
2026-04-26 23:06 18.47360 -77.98292 1258 ft 148 kts 64°
2026-04-26 23:06 18.47783 -77.97314 1089 ft 142 kts 64°
2026-04-26 23:07 18.48202 -77.96348 905 ft 147 kts 64°
2026-04-26 23:07 18.48608 -77.95407 721 ft 136 kts 64°
2026-04-26 23:07 18.49017 -77.94475 587 ft 145 kts 64°
2026-04-26 23:07 18.49446 -77.93503 282 ft 145 kts 67°
2026-04-26 23:08 18.49830 -77.92570 69 ft 140 kts 65°
2026-04-26 23:08 18.50226 -77.91662 20 ft 122 kts 66°
2026-04-26 23:08 18.50489 -77.91049 18 ft 64 kts 65°
2026-04-26 23:08 18.50632 -77.90722 19 ft 36 kts 65°
2026-04-26 23:09 18.50734 -77.90491 17 ft 34 kts 65°
2026-04-26 23:09 18.50812 -77.90310 16 ft 21 kts 69°
2026-04-26 23:09 18.50822 -77.90202 16 ft 12 kts 116°
2026-04-26 23:09 18.50762 -77.90184 16 ft 8 kts 195°
2026-04-26 23:10 18.50676 -77.90216 16 ft 17 kts 204°
2026-04-26 23:10 18.50625 -77.90312 16 ft 19 kts 244°
2026-04-26 23:10 18.50551 -77.90474 17 ft 26 kts 245°
2026-04-26 23:10 18.50475 -77.90649 16 ft 27 kts 247°
2026-04-26 23:11 18.50402 -77.90830 16 ft 27 kts 245°
2026-04-26 23:11 18.50321 -77.91013 16 ft 28 kts 245°
2026-04-26 23:11 18.50239 -77.91200 16 ft 29 kts 245°
2026-04-26 23:11 18.50173 -77.91313 16 ft 10 kts 209°
2026-04-26 23:12 18.50118 -77.91328 16 ft 8 kts 223°
2026-04-26 23:12 18.50067 -77.91363 16 ft 10 kts 203°
2026-04-26 23:12 18.50016 -77.91370 16 ft 3 kts 185°
2026-04-26 23:12 18.49994 -77.91372 16 ft 2 kts 185°
2026-04-26 23:13 18.49992 -77.91372 16 ft 0 kts 185°